Home > Weather > Sarnen > Past weeks

Flag for Switzerland Past Weather in Sarnen, Obwalden, Switzerland — Yesterday and Last 2 Weeks

Now
66 °F

Mild.


Feels Like: 66 °F
Forecast: 54 / 74 °F
Wind: 5 mph from Southwest

Location: Giswil

Current Time: Jul 2, 2016 at 9:36:02 AM

Latest Report: Jul 2, 2016 at 8:00 AM


Visibility: N/A

Pressure: 30.02 "Hg

Humidity: 86%

Dew Point: 62 °F

Location of SarnenLocation

Past Weather in Sarnen — Graph

°F

Sarnen Temperature Yesterday

Maximum temperature yesterday: 78 °F (at 6:00 PM)
Minimum temperature yesterday: 57 °F (at 5:00 AM)
Average temperature yesterday: 68 °F

High & Low Weather Summary for the Past Weeks

 TemperatureHumidityPressure
High89 °F (Jun 23, 5:00 PM)100% (Jun 18, 4:00 AM)30.30 "Hg (Jun 18, 4:00 AM)
Low48 °F (Jun 18, 6:00 AM)45% (Jun 27, 3:00 PM)29.85 "Hg (Jun 17, 8:00 AM)
Average64 °F82%30.09 "Hg
* Reported Jun 17 8:00 AM — Jul 2 8:00 AM, Sarnen, Weather by CustomWeather, © 2016

Note: Actual official high and low records may vary slightly from our data, if they occured in-between our weather recording intervals... More about our weather records

Advertising

Sarnen Weather History for the Previous 24 Hours

Scroll right to see more
 ConditionsComfort  
Time TempWeatherWind HumidityBarometerVisibility
8:00 AM
Sat, Jul 2
66 °FMild.5 mph86%30.02 "HgN/A
7:00 AM63 °FMild.3 mph96%30.02 "HgN/A
6:00 AM63 °FMild.5 mph96%30.01 "HgN/A
5:00 AM62 °FCool.2 mph97%29.99 "HgN/A
4:00 AM61 °FCool.1 mph98%30.00 "HgN/A
3:00 AM60 °FCool.1 mph99%29.99 "HgN/A
2:00 AM60 °FCool.2 mph100%30.00 "HgN/A
1:00 AM62 °FCool.No wind96%30.01 "HgN/A
12:00 AM63 °FMild.1 mph98%30.02 "HgN/A
11:00 PM
Fri, Jul 1
65 °FMild.2 mph96%30.02 "HgN/A
10:00 PM68 °FMild.1 mph94%30.00 "HgN/A
9:00 PM71 °FMild.1 mph96%29.98 "HgN/A
8:00 PM75 °FMild.1 mph77%29.96 "HgN/A
7:00 PM76 °FMild.2 mph71%29.96 "HgN/A
6:00 PM78 °FWarm.1 mph59%29.96 "HgN/A
5:00 PM77 °FMild.1 mph64%29.96 "HgN/A
4:00 PM77 °FWarm.2 mph64%29.97 "HgN/A
3:00 PM78 °FWarm.3 mph60%29.98 "HgN/A
2:00 PM76 °FMild.3 mph62%30.00 "HgN/A
1:00 PM75 °FMild.3 mph64%30.02 "HgN/A
12:00 PM73 °FMild.5 mph71%30.04 "HgN/A
11:00 AM71 °FMild.2 mph71%30.06 "HgN/A
10:00 AM68 °FMild.1 mph79%30.07 "HgN/A
9:00 AM66 °FMild.2 mph85%30.08 "HgN/A
Weather by CustomWeather, © 2016

See weather overviewHow to use our weather pages